Weather History for EGQL - January, 2013

Change the Weather History Date:

Wednesday, January 30, 2013

  Actual Average Record
Temperature  
Mean Temperature 44 °F -  
Max Temperature 46 °F 44 °F 50 °F (2000)
Min Temperature 41 °F 33 °F 23 °F (2006)
Degree Days  
Heating Degree Days 22    
Moisture  
Dew Point 32 °F    
Average Humidity 64    
Maximum Humidity 81    
Minimum Humidity 42    
Precipitation  
Precipitation 0.00 in - - ()
Sea Level Pressure  
Sea Level Pressure 29.22 in    
Wind  
Wind Speed 25 mph ()    
Max Wind Speed 37 mph    
Max Gust Speed 51 mph    
Visibility 7.4 miles    
Events Rain    
Averages and records for this station are not official NWS values.
T = Trace of Precipitation, MM = Missing Value Source: Averaged Metar Reports

Daily Weather History Graph

Daily Weather History Graph

Search for Another Location

Airport or City:

Trip Planner

Search our weather history database for the weather conditions in past years. The results will help you decide how hot, cold, wet, or windy it might be!

Date:

Astronomy

Jan. 30, 2013 Rise Set
Actual Time 8:11 AM GMT 4:38 PM GMT
Civil Twilight 7:29 AM GMT 5:20 PM GMT
Nautical Twilight 6:43 AM GMT 6:06 PM GMT
Astronomical Twilight 5:59 AM GMT 6:50 PM GMT
Moon 9:17 PM GMT (1/30) 8:43 AM GMT (1/30)
Length of Visible Light 9h 51m
Length of Day
8h 27m
Waning Gibbous, 89% of the Moon is Illuminated
Jan 30
Waning Gibbous
Feb 3
Last Quarter
Feb 10
New
Feb 17
First Quarter
Feb 25
Full

Hourly Weather History & Observations

Time (GMT) Temp. Windchill Dew Point Humidity Pressure Visibility Wind Dir Wind Speed Gust Speed Precip Events Conditions
12:50 AM 44.6 °F 34.4 °F 33.8 °F 66% 29.06 in 6.2 mi WSW 32.2 mph - N/A   Scattered Clouds
1:50 AM 44.6 °F 35.1 °F 33.8 °F 66% 29.06 in 6.2 mi WSW 27.6 mph 39.1 mph N/A   Partly Cloudy
2:50 AM 43 °F - 33 °F 59% 29.08 in 25 mi WSW 25.3 mph - -   Scattered Clouds
2:50 AM 42.8 °F 33.1 °F 33.8 °F 70% 29.06 in 6.2 mi WSW 25.3 mph - N/A   Partly Cloudy
3:50 AM 42.8 °F 33.1 °F 33.8 °F 70% 29.06 in 6.2 mi WSW 25.3 mph - N/A   Partly Cloudy
4:50 AM 42.8 °F 33.3 °F 33.8 °F 70% 29.06 in 6.2 mi WSW 24.2 mph - N/A   Partly Cloudy
5:50 AM 42.8 °F 33.3 °F 33.8 °F 70% 29.06 in 6.2 mi WSW 24.2 mph - N/A   Partly Cloudy
6:50 AM 42.8 °F 32.7 °F 33.8 °F 70% 29.06 in 6.2 mi WSW 27.6 mph - N/A   Scattered Clouds
7:50 AM 41.0 °F 29.8 °F 33.8 °F 76% 29.06 in 6.2 mi WSW 29.9 mph - N/A   Partly Cloudy
8:50 AM 41 °F - 35 °F 71% 29.11 in 22 mi WSW 26.5 mph - -   Partly Cloudy
8:50 AM 41.0 °F 30.5 °F 35.6 °F 81% 29.09 in 6.2 mi WSW 26.5 mph - N/A   Partly Cloudy
9:50 AM 41.0 °F 30.5 °F 33.8 °F 76% 29.09 in 6.2 mi WSW 26.5 mph - N/A   Partly Cloudy
10:50 AM 41.0 °F 29.7 °F 35.6 °F 81% 29.12 in 6.2 mi WSW 31.1 mph - N/A   Partly Cloudy
11:50 AM 43 °F - 36 °F 69% 29.13 in 31 mi WSW 29.9 mph - -   Partly Cloudy
11:50 AM 42.8 °F 32.3 °F 35.6 °F 76% 29.12 in 6.2 mi WSW 29.9 mph - N/A   Partly Cloudy
12:50 PM 42.8 °F 32.7 °F 35.6 °F 76% 29.15 in 6.2 mi WSW 27.6 mph - N/A Rain Light Rain Showers
1:50 PM 44.6 °F 34.7 °F 35.6 °F 71% 29.15 in 6.2 mi WSW 29.9 mph - N/A   Partly Cloudy
2:50 PM 45 °F - 29 °F 42% 29.19 in 25 mi West 34.5 mph - -   Partly Cloudy
2:50 PM 44.6 °F 34.1 °F 30.2 °F 57% 29.18 in 6.2 mi West 34.5 mph - N/A   Scattered Clouds
3:50 PM 46.4 °F 36.5 °F 26.6 °F 46% 29.21 in 6.2 mi West 34.5 mph 47.2 mph N/A   Mostly Cloudy
4:50 PM 46.4 °F 36.3 °F 28.4 °F 50% 29.27 in 6.2 mi West 36.8 mph 50.6 mph N/A   Mostly Cloudy
5:50 PM 45 °F - 29 °F 42% 29.33 in 19 mi West 33.4 mph - -   Partly Cloudy
5:50 PM 44.6 °F 34.2 °F 30.2 °F 57% 29.33 in 6.2 mi West 33.4 mph 48.3 mph N/A   Mostly Cloudy
6:50 PM 44.6 °F 34.2 °F 26.6 °F 49% 29.36 in - West 33.4 mph 46.0 mph N/A   Clear
7:50 PM 44.6 °F 34.4 °F 28.4 °F 53% 29.42 in - West 32.2 mph - N/A   Clear
8:50 PM 44 °F - 31 °F 50% 29.48 in 19 mi West 26.5 mph - -   Clear
8:50 PM 44.6 °F 35.3 °F 32.0 °F 61% 29.47 in - West 26.5 mph - N/A   Clear
9:50 PM 42.8 °F 33.5 °F 30.2 °F 61% 29.50 in 6.2 mi West 23.0 mph - N/A   Partly Cloudy
10:50 PM 41.0 °F 31.6 °F 30.2 °F 65% 29.53 in - West 20.7 mph - N/A   Clear
11:50 PM 41 °F - 31 °F 57% 29.57 in 25 mi WSW 20.7 mph - -   Clear
11:50 PM 41.0 °F 31.6 °F 32.0 °F 70% 29.56 in - WSW 20.7 mph - N/A   Clear